Location: Brown Observing Site
(43.4354°N, 116.3366°W)
Time: 02:51:39
(UTC-06:00)

Envisat - Pass Details

Date: 09 October 2020
Orbit: 764 x 766 km, 98.1° (Epoch: 23 October)

Event Time Altitude Azimuth Distance (km) Brightness Sun altitude
Rises 20:05:01 0° 205° (SSW) 3,217 6.6 -10.6°
Reaches altitude 10° 20:07:57 10° 223° (SW) 2,296 6.1 -11.1°
Maximum altitude 20:11:33 19° 268° (W) 1,739 6.0 -11.8°
Drops below altitude 10° 20:15:10 10° 314° (NW) 2,307 6.2 -12.4°
Sets 20:18:08 0° 332° (NNW) 3,239 6.7 -13.0°
